Weather History for KMMH - July, 2013

Change the Weather History Date:

Sunday, July 28, 2013

  Actual Average (KBIH) Record (KBIH)
Temperature  
Mean Temperature 60 °F 78 °F  
Max Temperature 78 °F 99 °F 105 °F (1994)
Min Temperature 42 °F 57 °F 48 °F (1965)
Degree Days  
Heating Degree Days 5 0  
Month to date heating degree days 0  
Since 1 June heating degree days 19  
Since 1 July heating degree days 0  
Cooling Degree Days 0 13  
Month to date cooling degree days 347  
Year to date cooling degree days 629  
Since 1 June cooling degree days 561  
Growing Degree Days 10 (Base 50)    
Moisture  
Dew Point 43 °F    
Average Humidity 55    
Maximum Humidity 93    
Minimum Humidity 25    
Precipitation  
Precipitation 0.01 in 0.00 in 0.06 in (1968)
Month to date precipitation 0.15  
Year to date precipitation 3.22  
Snow  
Snow 0.00 in 0.00 in - ()
Month to date snowfall 0.0  
Since 1 June snowfall 0.0  
Since 1 July snowfall 0.0  
Snow Depth -    
Sea Level Pressure  
Sea Level Pressure 30.19 in    
Wind  
Wind Speed 4 mph (ESE)    
Max Wind Speed 15 mph    
Max Gust Speed 26 mph    
Visibility 7 miles    
Events Rain    
T = Trace of Precipitation, MM = Missing Value Source: NWS Daily Summary

Daily Weather History Graph

Daily Weather History Graph

Search for Another Location

Airport or City:

Trip Planner

Search our weather history database for the weather conditions in past years. The results will help you decide how hot, cold, wet, or windy it might be!

Date:

Astronomy

Jul. 28, 2013 Rise Set
Actual Time 5:56 AM PDT 8:07 PM PDT
Civil Twilight 5:26 AM PDT 8:36 PM PDT
Nautical Twilight 4:50 AM PDT 9:12 PM PDT
Astronomical Twilight 4:11 AM PDT 9:51 PM PDT
Moon 11:41 PM PDT 12:34 PM PDT
Length of Visible Light 15h 09m
Length of Day
14h 10m
Waning Gibbous, 60% of the Moon is Illuminated
Jul 28
Waning Gibbous
Jul 29
Last Quarter
Aug 6
New
Aug 14
First Quarter
Aug 20
Full

Hourly Weather History & Observations

Time (PDT) Temp. Windchill Dew Point Humidity Pressure Visibility Wind Dir Wind Speed Gust Speed Precip Events Conditions
12:15 AM 53.6 °F - 44.6 °F 72% 30.25 in 10.0 mi West 5.8 mph - N/A   Clear
12:35 AM 53.6 °F - 44.6 °F 72% 30.25 in 10.0 mi Calm Calm - N/A   Clear
12:55 AM 53.6 °F - 44.6 °F 72% 30.24 in 7.0 mi Calm Calm - N/A   Clear
1:15 AM 53.6 °F - 44.6 °F 72% 30.24 in 7.0 mi Calm Calm - N/A   Clear
1:35 AM 51.8 °F - 44.6 °F 76% 30.24 in 7.0 mi North 4.6 mph - N/A   Clear
1:55 AM 51.8 °F - 44.6 °F 76% 30.23 in 7.0 mi Calm Calm - N/A   Clear
2:15 AM 51.8 °F - 44.6 °F 76% 30.23 in 7.0 mi Calm Calm - N/A   Scattered Clouds
2:35 AM 50.0 °F - 44.6 °F 82% 30.23 in 7.0 mi Calm Calm - N/A   Overcast
2:55 AM 50.0 °F - 42.8 °F 76% 30.22 in 5.0 mi WNW 5.8 mph - N/A   Haze
3:15 AM 48.2 °F - 42.8 °F 82% 30.21 in 5.0 mi North 4.6 mph - N/A   Haze
3:35 AM 48.2 °F - 42.8 °F 82% 30.21 in 5.0 mi Calm Calm - N/A   Haze
3:55 AM 50.0 °F - 42.8 °F 76% 30.20 in 5.0 mi Calm Calm - N/A   Haze
4:15 AM 48.2 °F - 42.8 °F 82% 30.20 in 5.0 mi Calm Calm - N/A   Haze
4:35 AM 46.4 °F - 42.8 °F 87% 30.20 in 5.0 mi Calm Calm - N/A   Overcast
4:55 AM 44.6 °F 43.1 °F 41.0 °F 87% 30.20 in 5.0 mi NW 3.5 mph - N/A   Overcast
5:15 AM 46.4 °F - 42.8 °F 87% 30.20 in 4.0 mi Calm Calm - N/A   Overcast
5:35 AM 42.8 °F - 41.0 °F 93% 30.21 in 4.0 mi Calm Calm - N/A   Overcast
5:55 AM 44.6 °F 43.1 °F 41.0 °F 87% 30.21 in 4.0 mi North 3.5 mph - N/A   Overcast
6:15 AM 44.6 °F - 41.0 °F 87% 30.22 in 4.0 mi Calm Calm - N/A   Overcast
6:35 AM 46.4 °F - 42.8 °F 87% 30.22 in 4.0 mi Calm Calm - N/A   Overcast
6:55 AM 48.2 °F - 44.6 °F 87% 30.22 in 4.0 mi Calm Calm - N/A   Overcast
7:15 AM 50.0 °F - 44.6 °F 82% 30.22 in 4.0 mi Calm Calm - N/A   Haze
7:35 AM 51.8 °F - 44.6 °F 76% 30.22 in 5.0 mi Calm Calm - N/A   Haze
7:55 AM 53.6 °F - 46.4 °F 77% 30.22 in 5.0 mi SE 3.5 mph - N/A   Haze
8:15 AM 57.2 °F - 46.4 °F 67% 30.22 in 5.0 mi North - - N/A   Haze
8:35 AM 59.0 °F - 44.6 °F 59% 30.22 in 5.0 mi North - - N/A   Haze
8:55 AM 62.6 °F - 42.8 °F 48% 30.22 in 4.0 mi Calm Calm - N/A   Haze
9:15 AM 64.4 °F - 44.6 °F 49% 30.22 in 4.0 mi North - - N/A   Haze
9:35 AM 66.2 °F - 42.8 °F 43% 30.21 in 3.0 mi Calm Calm - N/A   Haze
9:55 AM 68.0 °F - 42.8 °F 40% 30.20 in 3.0 mi SSE 4.6 mph - N/A   Haze
10:15 AM 69.8 °F - 42.8 °F 38% 30.20 in 3.0 mi Calm Calm - N/A   Haze
10:35 AM 73.4 °F - 41.0 °F 31% 30.20 in 4.0 mi East 5.8 mph - N/A   Haze
10:55 AM 75.2 °F - 39.2 °F 27% 30.20 in 7.0 mi ESE 6.9 mph - N/A   Scattered Clouds
11:15 AM 75.2 °F - 39.2 °F 27% 30.19 in 10.0 mi East 5.8 mph - N/A   Clear
11:35 AM 77.0 °F - 39.2 °F 26% 30.19 in 10.0 mi ESE 6.9 mph - N/A   Scattered Clouds
11:55 AM 73.4 °F - 41.0 °F 31% 30.18 in 10.0 mi SE 5.8 mph - N/A Rain Light Rain
12:15 PM 66.2 °F - 50.0 °F 56% 30.19 in 7.0 mi ESE 12.7 mph 19.6 mph 0.01 in Rain Rain
12:35 PM 68.0 °F - 42.8 °F 40% 30.17 in 10.0 mi ESE 10.4 mph - 0.01 in   Mostly Cloudy
12:55 PM 68.0 °F - 44.6 °F 43% 30.17 in 10.0 mi West 9.2 mph - 0.01 in Rain Light Rain
1:15 PM 75.2 °F - 37.4 °F 25% 30.16 in 10.0 mi NNE 4.6 mph - N/A   Scattered Clouds
1:35 PM 73.4 °F - 44.6 °F 36% 30.16 in 7.0 mi West 9.2 mph - N/A   Light Drizzle
1:55 PM 73.4 °F - 46.4 °F 38% 30.16 in 3.0 mi West 10.4 mph - N/A   Haze
2:15 PM 73.4 °F - 42.8 °F 33% 30.16 in 2.5 mi West 13.8 mph 20.7 mph N/A   Haze
2:35 PM 75.2 °F - 42.8 °F 31% 30.15 in 3.0 mi West 8.1 mph - N/A   Haze
2:55 PM 77.0 °F - 41.0 °F 28% 30.14 in 4.0 mi West 10.4 mph 17.3 mph N/A   Haze
3:15 PM 78.8 °F - 41.0 °F 26% 30.13 in 5.0 mi West 10.4 mph - N/A   Haze
3:35 PM 75.2 °F - 39.2 °F 27% 30.13 in 7.0 mi SW 4.6 mph 26.5 mph N/A   Overcast
3:55 PM 75.2 °F - 41.0 °F 29% 30.13 in 7.0 mi East 5.8 mph - N/A   Overcast
4:15 PM 75.2 °F - 44.6 °F 34% 30.13 in 10.0 mi ESE 10.4 mph - N/A   Overcast
4:35 PM 75.2 °F - 44.6 °F 34% 30.14 in 10.0 mi ESE 12.7 mph - N/A   Mostly Cloudy
4:55 PM 73.4 °F - 42.8 °F 33% 30.14 in 10.0 mi ESE 8.1 mph - N/A   Mostly Cloudy
5:15 PM 73.4 °F - 42.8 °F 33% 30.15 in 10.0 mi East 15.0 mph - N/A   Mostly Cloudy
5:35 PM 69.8 °F - 46.4 °F 43% 30.15 in 10.0 mi ESE 9.2 mph 17.3 mph N/A   Mostly Cloudy
5:55 PM 69.8 °F - 44.6 °F 40% 30.15 in 10.0 mi East 9.2 mph - N/A   Scattered Clouds
6:15 PM 69.8 °F - 42.8 °F 38% 30.15 in 10.0 mi ESE 11.5 mph 17.3 mph N/A   Clear
6:35 PM 68.0 °F - 42.8 °F 40% 30.16 in 10.0 mi ESE 9.2 mph 16.1 mph N/A   Scattered Clouds
6:55 PM 68.0 °F - 41.0 °F 37% 30.17 in 10.0 mi East 5.8 mph - N/A   Scattered Clouds
7:15 PM 66.2 °F - 41.0 °F 40% 30.17 in 10.0 mi East 4.6 mph - N/A   Scattered Clouds
8:15 PM 64.4 °F - 42.8 °F 45% 30.17 in 10.0 mi SSW 4.6 mph - N/A   Clear
8:35 PM 60.8 °F - 42.8 °F 52% 30.17 in 10.0 mi Calm Calm - N/A   Clear
8:55 PM 60.8 °F - 42.8 °F 52% 30.18 in 10.0 mi Calm Calm - N/A   Clear
9:15 PM 59.0 °F - 42.8 °F 55% 30.19 in 10.0 mi Calm Calm - N/A   Scattered Clouds
9:35 PM 59.0 °F - 41.0 °F 51% 30.20 in 10.0 mi West 4.6 mph - N/A   Clear
9:55 PM 57.2 °F - 41.0 °F 55% 30.20 in 10.0 mi Calm Calm - N/A   Clear
10:15 PM 55.4 °F - 41.0 °F 58% 30.20 in - Calm Calm - N/A   Mostly Cloudy
10:55 PM 55.4 °F - 41.0 °F 58% 30.19 in 10.0 mi Calm Calm - N/A   Overcast
11:15 PM 55.4 °F - 41.0 °F 58% 30.19 in 10.0 mi Calm Calm - N/A   Overcast
11:35 PM 57.2 °F - 41.0 °F 55% 30.19 in 7.0 mi Calm Calm - N/A   Overcast
11:55 PM 55.4 °F - 42.8 °F 63% 30.19 in 5.0 mi Calm Calm - N/A   Haze